Location: La Coruña
(43.3623°N, 8.4115°W)
Time: 02:48:34
(UTC+01:00)

STARLINK-1125 - Pass Details

Date: 19 January 2020
Orbit: 348 x 351 km, 53.0° (Epoch: 17 February)

Event Time Altitude Azimuth Distance (km) Brightness Sun altitude
Rises 20:37:34 0° 279° (W) 2,170 8.0 -23.3°
Reaches altitude 10° 20:40:03 10° 301° (WNW) 1,330 6.3 -23.7°
Enters shadow 20:41:03 15° 319° (NW) 1,098 5.5 -23.9°
